Albuquerque, NM

4:01 PM MST on December 07, 2016 (GMT -0700)
Double Eagle Ii

Weather History for KAEG - January, 2013

Change the Weather History Date:

Tuesday, January 22, 2013

  Actual Average (KABQ) Record (KABQ)
Temperature  
Mean Temperature 36 °F 37 °F  
Max Temperature 55 °F 47 °F 66 °F (1950)
Min Temperature 17 °F 26 °F 3 °F (1918)
Degree Days  
Heating Degree Days 29 28  
Month to date heating degree days 638  
Since 1 July heating degree days 2395  
Cooling Degree Days 0 0  
Month to date cooling degree days 0  
Year to date cooling degree days 0  
Moisture  
Dew Point 6 °F    
Average Humidity 33    
Maximum Humidity 63    
Minimum Humidity 12    
Precipitation  
Precipitation 0.00 in 0.01 in 0.56 in (1913)
Month to date precipitation 0.27  
Year to date precipitation 0.27  
Snow  
Snow 0.00 in - - ()
Month to date snowfall  
Since 1 July snowfall  
Snow Depth -    
Sea Level Pressure  
Sea Level Pressure 30.30 in    
Wind  
Wind Speed 6 mph (NNW)    
Max Wind Speed 20 mph    
Max Gust Speed -    
Visibility 10 miles    
Events      
T = Trace of Precipitation, MM = Missing Value Source: NWS Daily Summary

Daily Weather History Graph

Daily Weather History Graph

Search for Another Location

Airport or City:

Trip Planner

Search our weather history database for the weather conditions in past years. The results will help you decide how hot, cold, wet, or windy it might be!

Date:

Astronomy

Jan. 22, 2013 Rise Set
Actual Time 7:12 AM MST 5:25 PM MST
Civil Twilight 6:45 AM MST 5:53 PM MST
Nautical Twilight 6:14 AM MST 6:23 PM MST
Astronomical Twilight 5:44 AM MST 6:54 PM MST
Moon 1:52 PM MST (1/22) 3:34 AM MST (1/22)
Length of Visible Light 11h 07m
Length of Day
10h 13m
Waxing Gibbous, 83% of the Moon is Illuminated
Jan 22
Waxing Gibbous
Jan 26
Full
Feb 3
Last Quarter
Feb 10
New
Feb 17
First Quarter

Hourly Weather History & Observations

Time (MST) Temp. Windchill Dew Point Humidity Pressure Visibility Wind Dir Wind Speed Gust Speed Precip Events Conditions
12:15 AM 32.0 °F 25.6 °F 6.8 °F 35% 30.27 in 10.0 mi NW 6.9 mph - N/A   Clear
12:55 AM 32.0 °F 23.6 °F 6.8 °F 35% 30.27 in 10.0 mi NW 10.4 mph - N/A   Clear
1:15 AM 30.2 °F 23.4 °F 6.8 °F 37% 30.27 in 10.0 mi NW 6.9 mph - N/A   Clear
1:55 AM 26.6 °F 18.2 °F 6.8 °F 43% 30.28 in 10.0 mi NW 8.1 mph - N/A   Clear
2:15 AM 28.4 °F - 8.6 °F 43% 30.29 in 10.0 mi Calm Calm - N/A   Clear
2:35 AM 28.4 °F 22.2 °F 6.8 °F 40% 30.29 in 10.0 mi NE 5.8 mph - N/A   Clear
2:55 AM 30.2 °F - 8.6 °F 40% 30.30 in 10.0 mi Calm Calm - N/A   Clear
3:15 AM 23.0 °F - 5.0 °F 46% 30.30 in 10.0 mi Calm Calm - N/A   Clear
3:35 AM 23.0 °F 17.0 °F 6.8 °F 50% 30.30 in 10.0 mi South 4.6 mph - N/A   Clear
3:55 AM 19.4 °F - 6.8 °F 58% 30.30 in 10.0 mi Calm Calm - N/A   Clear
4:15 AM 17.6 °F - 5.0 °F 58% 30.30 in 10.0 mi Calm Calm - N/A   Clear
4:35 AM 17.6 °F - 5.0 °F 58% 30.30 in 10.0 mi Calm Calm - N/A   Clear
6:50 AM 17.6 °F - 6.8 °F 63% 30.31 in 10.0 mi Calm Calm - N/A   Clear
7:50 AM 21.2 °F 10.9 °F 8.6 °F 58% 30.33 in 10.0 mi WNW 9.2 mph - N/A   Clear
8:50 AM 32.0 °F 27.5 °F 10.4 °F 41% 30.34 in 10.0 mi NNW 4.6 mph - N/A   Clear
9:50 AM 37.4 °F - 10.4 °F 33% 30.35 in 10.0 mi Calm Calm - N/A   Clear
10:50 AM 41.0 °F 36.4 °F 10.4 °F 29% 30.34 in 10.0 mi SSE 6.9 mph - N/A   Clear
11:50 AM 46.4 °F - 10.4 °F 23% 30.32 in 10.0 mi Calm Calm - N/A   Clear
12:50 PM 50.0 °F - 6.8 °F 17% 30.29 in 10.0 mi NW 9.2 mph - N/A   Clear
1:50 PM 53.6 °F - 10.4 °F 18% 30.27 in 10.0 mi East 5.8 mph - N/A   Clear
2:50 PM 55.4 °F - 5.0 °F 13% 30.26 in 10.0 mi NW 6.9 mph - N/A   Clear
3:50 PM 53.6 °F - 8.6 °F 16% 30.26 in 10.0 mi Calm Calm - N/A   Clear
4:50 PM 53.6 °F - 1.4 °F 12% 30.26 in 10.0 mi NNW 9.2 mph - N/A   Clear
5:50 PM 46.4 °F 43.5 °F 5.0 °F 18% 30.27 in 10.0 mi North 5.8 mph - N/A   Clear
6:50 PM 39.2 °F 30.8 °F 3.2 °F 22% 30.28 in 10.0 mi NNW 15.0 mph - N/A   Clear
7:50 PM 37.4 °F 29.3 °F 6.8 °F 28% 30.29 in 10.0 mi NNW 12.7 mph - N/A   Clear
8:50 PM 37.4 °F 29.3 °F 8.6 °F 30% 30.31 in 10.0 mi NNW 12.7 mph - N/A   Clear
9:15 PM 33.8 °F 27.7 °F 5.0 °F 30% 30.32 in 10.0 mi NE 6.9 mph - N/A   Clear
9:51 PM 35.6 °F 27.5 °F 5.0 °F 28% 30.32 in 10.0 mi NNW 11.5 mph - N/A   Clear
9:55 PM 37.4 °F 29.8 °F 5.0 °F 26% 30.32 in 10.0 mi NNW 11.5 mph - N/A   Clear
10:15 PM 35.6 °F 27.1 °F 5.0 °F 28% 30.33 in 10.0 mi NNW 12.7 mph - N/A   Clear
10:35 PM 35.6 °F 26.6 °F 5.0 °F 28% 30.33 in 10.0 mi North 13.8 mph - N/A   Clear
10:55 PM 39.2 °F 29.6 °F 3.2 °F 22% 30.33 in 10.0 mi NNW 19.6 mph - N/A   Clear
11:15 PM 37.4 °F 29.3 °F 3.2 °F 24% 30.33 in 10.0 mi NW 12.7 mph - N/A   Clear
11:35 PM 35.6 °F 27.1 °F 1.4 °F 24% 30.33 in 10.0 mi NW 12.7 mph - N/A   Clear
11:55 PM 32.0 °F - 1.4 °F 27% 30.34 in 10.0 mi Calm Calm - N/A   Clear